Back to catalog

EDISON-1

AliveScienceSSO
NORAD 62610·PAYLOAD·🇩🇰 Denmark

Launched Jan 14, 2025 from Vandenberg Space Force Base

Loading…

Next Passes (next 24 hours)

TLE

FreshSource: Space-Track

Epoch: Sep 13, 2026, 17:22 UTC

1 62610U 25009B   26256.72384996  .00009359  00000-0  29122-3 0  9995
2 62610  97.3956 339.2094 0004896   9.7559 350.3778 15.33513432 92518

Track EDISON-1 in real time with AllMySat

Download on the App Store